Rochester, NH

10:46 AM EDT on April 28, 2017 (GMT -0400)
Skyhaven

Weather History for KDAW - September, 2013

Change the Weather History Date:

Saturday, September 14, 2013

  Actual Average (KPSM) Record (KPSM)
Temperature  
Mean Temperature 60 °F -  
Max Temperature 68 °F 71 °F 87 °F (2016)
Min Temperature 52 °F 53 °F 32 °F (1978)
Degree Days  
Heating Degree Days 6    
Growing Degree Days 10 (Base 50)    
Moisture  
Dew Point 52 °F    
Average Humidity 79    
Maximum Humidity 94    
Minimum Humidity 58    
Precipitation  
Precipitation 0.13 in - - ()
Sea Level Pressure  
Sea Level Pressure 29.87 in    
Wind  
Wind Speed 4 mph (NW)    
Max Wind Speed 9 mph    
Max Gust Speed -    
Visibility 9 miles    
Events Rain    
Averages and records for this station are not official NWS values.
T = Trace of Precipitation, MM = Missing Value Source: NWS Daily Summary

Daily Weather History Graph

Daily Weather History Graph

Search for Another Location

Airport or City:

Trip Planner

Search our weather history database for the weather conditions in past years. The results will help you decide how hot, cold, wet, or windy it might be!

Date:

Astronomy

Sep. 14, 2013 Rise Set
Actual Time 6:22 AM EDT 6:55 PM EDT
Civil Twilight 5:53 AM EDT 7:23 PM EDT
Nautical Twilight 5:19 AM EDT 7:57 PM EDT
Astronomical Twilight 4:44 AM EDT 8:32 PM EDT
Moon 3:40 PM EDT (9/14) 12:43 AM EDT (9/14)
Length of Visible Light 13h 30m
Length of Day
12h 32m
Waxing Gibbous, 72% of the Moon is Illuminated
Sep 14
Waxing Gibbous
Sep 19
Full
Sep 26
Last Quarter
Oct 4
New
Oct 11
First Quarter

Hourly Weather History & Observations

Time (EDT) Temp. Dew Point Humidity Pressure Visibility Wind Dir Wind Speed Gust Speed Precip Events Conditions
12:51 AM 55.0 °F 52.0 °F 89% 29.74 in 10.0 mi NW 5.8 mph - N/A   Scattered Clouds
1:51 AM 57.0 °F 52.0 °F 83% 29.75 in 10.0 mi WNW 5.8 mph - N/A   Overcast
2:51 AM 57.0 °F 53.1 °F 87% 29.76 in 10.0 mi Calm Calm - N/A   Overcast
3:51 AM 57.0 °F 53.1 °F 87% 29.77 in 10.0 mi Calm Calm - N/A   Overcast
4:51 AM 55.9 °F 53.1 °F 90% 29.78 in 5.0 mi Calm Calm - 0.01 in Rain Rain
4:59 AM 55.4 °F 53.6 °F 94% 29.79 in 1.8 mi WNW 3.5 mph - 0.07 in Rain Heavy Rain
5:10 AM 55.4 °F 53.6 °F 94% 29.78 in 3.0 mi NW 6.9 mph - 0.11 in Rain Rain
5:51 AM 55.9 °F 53.1 °F 90% 29.79 in 10.0 mi Calm Calm - 0.11 in   Overcast
6:51 AM 55.9 °F 54.0 °F 93% 29.81 in 10.0 mi Calm Calm - 0.00 in   Overcast
7:51 AM 57.0 °F 54.0 °F 89% 29.83 in 10.0 mi Calm Calm - N/A   Overcast
8:51 AM 57.9 °F 53.1 °F 84% 29.85 in 10.0 mi NW 5.8 mph - 0.00 in   Overcast
9:51 AM 59.0 °F 53.1 °F 81% 29.87 in 10.0 mi NW 9.2 mph - N/A   Overcast
10:51 AM 61.0 °F 54.0 °F 78% 29.88 in 10.0 mi NW 5.8 mph - 0.00 in   Overcast
11:51 AM 64.9 °F 54.0 °F 68% 29.87 in 10.0 mi Variable 5.8 mph - 0.01 in   Scattered Clouds
12:51 PM 66.9 °F 53.1 °F 61% 29.87 in 10.0 mi NW 4.6 mph - N/A   Overcast
1:51 PM 66.0 °F 52.0 °F 60% 29.87 in 10.0 mi West 3.5 mph - N/A   Mostly Cloudy
2:51 PM 64.9 °F 52.0 °F 63% 29.88 in 10.0 mi Variable 4.6 mph - N/A   Overcast
3:51 PM 64.9 °F 51.1 °F 61% 29.89 in 10.0 mi Variable 4.6 mph - N/A   Scattered Clouds
4:51 PM 64.9 °F 50.0 °F 58% 29.91 in 10.0 mi Variable 6.9 mph - N/A   Clear
5:51 PM 62.1 °F 50.0 °F 65% 29.94 in 10.0 mi Variable 5.8 mph - N/A   Clear
6:51 PM 59.0 °F 48.9 °F 69% 29.96 in 10.0 mi Variable 3.5 mph - N/A   Clear
7:51 PM 57.0 °F 48.9 °F 74% 29.98 in 10.0 mi Variable 5.8 mph - N/A   Clear
8:51 PM 53.1 °F 48.0 °F 83% 30.01 in 10.0 mi NW 4.6 mph - N/A   Clear
9:51 PM 54.0 °F 48.0 °F 80% 30.01 in 10.0 mi Calm Calm - N/A   Mostly Cloudy
10:51 PM 53.1 °F 48.0 °F 83% 30.02 in 10.0 mi Calm Calm - N/A   Clear
11:51 PM 52.0 °F 48.0 °F 86% 30.02 in 10.0 mi Calm Calm - N/A   Clear